Weather History for KHCD - July, 2013

Change the Weather History Date:

Saturday, July 20, 2013

  Actual Average Record
Temperature  
Mean Temperature 69 °F -  
Max Temperature 79 °F 83 °F 95 °F (1977)
Min Temperature 60 °F 60 °F 42 °F (2007)
Cooling Degree Days 4    
Growing Degree Days 19 (Base 50)    
Moisture  
Dew Point 62 °F    
Average Humidity 76    
Maximum Humidity 96    
Minimum Humidity 58    
Precipitation  
Precipitation 0.00 in - - ()
Sea Level Pressure  
Sea Level Pressure 29.94 in    
Wind  
Wind Speed 3 mph (North)    
Max Wind Speed 10 mph    
Max Gust Speed -    
Visibility 10 miles    
Events      
Averages and records for this station are not official NWS values.
T = Trace of Precipitation, MM = Missing Value Source: NWS Daily Summary

Daily Weather History Graph

Daily Weather History Graph

Search for Another Location

Airport or City:

Trip Planner

Search our weather history database for the weather conditions in past years. The results will help you decide how hot, cold, wet, or windy it might be!

Date:

Astronomy

Jul. 20, 2013 Rise Set
Actual Time 5:50 AM CDT 8:56 PM CDT
Civil Twilight 5:15 AM CDT 9:31 PM CDT
Nautical Twilight 4:30 AM CDT 10:16 PM CDT
Astronomical Twilight 3:35 AM CDT 11:10 PM CDT
Moon 7:00 PM CDT (7/20) 3:31 AM CDT (7/20)
Length of Visible Light 16h 16m
Length of Day
15h 05m
Waxing Gibbous, 94% of the Moon is Illuminated
Jul 20
Waxing Gibbous
Jul 22
Full
Jul 29
Last Quarter
Aug 6
New
Aug 14
First Quarter

Hourly Weather History & Observations

Time (CDT) Temp. Dew Point Humidity Pressure Visibility Wind Dir Wind Speed Gust Speed Precip Events Conditions
12:14 AM 67.3 °F 61.0 °F 80% 29.93 in 10.0 mi Calm Calm - N/A   Clear
12:34 AM 65.5 °F 61.9 °F 88% 29.92 in 10.0 mi Calm Calm - N/A   Clear
12:53 AM 64.6 °F 62.1 °F 92% 29.92 in 10.0 mi Calm Calm - N/A   Clear
1:14 AM 63.5 °F 61.7 °F 94% 29.92 in 10.0 mi Calm Calm - N/A   Clear
1:34 AM 63.5 °F 61.5 °F 93% 29.92 in 10.0 mi Calm Calm - N/A   Clear
1:54 AM 64.6 °F 61.7 °F 90% 29.92 in 10.0 mi Calm Calm - N/A   Mostly Cloudy
2:13 AM 65.7 °F 63.0 °F 91% 29.93 in 10.0 mi NW 3.5 mph - N/A   Mostly Cloudy
2:34 AM 65.8 °F 62.8 °F 90% 29.92 in 10.0 mi Calm Calm - N/A   Scattered Clouds
2:54 AM 64.2 °F 62.6 °F 94% 29.91 in 10.0 mi Calm Calm - N/A   Clear
3:13 AM 63.5 °F 62.1 °F 95% 29.91 in 10.0 mi Calm Calm - N/A   Clear
3:33 AM 62.6 °F 61.2 °F 95% 29.92 in 10.0 mi Calm Calm - N/A   Clear
3:54 AM 62.4 °F 61.2 °F 96% 29.91 in 10.0 mi Calm Calm - N/A   Clear
4:13 AM 62.1 °F 60.8 °F 96% 29.92 in 10.0 mi SW 3.5 mph - N/A   Clear
4:33 AM 62.6 °F 60.8 °F 94% 29.92 in 10.0 mi Calm Calm - N/A   Clear
4:54 AM 62.6 °F 60.8 °F 94% 29.92 in 10.0 mi Calm Calm - N/A   Clear
5:14 AM 62.6 °F 60.6 °F 93% 29.92 in 10.0 mi Calm Calm - N/A   Clear
5:33 AM 61.5 °F 59.5 °F 93% 29.92 in 10.0 mi Calm Calm - N/A   Clear
5:54 AM 60.8 °F 59.5 °F 96% 29.93 in 10.0 mi Calm Calm - N/A   Clear
6:14 AM 61.7 °F 60.4 °F 96% 29.94 in 10.0 mi Calm Calm - N/A   Clear
6:34 AM 63.3 °F 61.7 °F 94% 29.94 in 10.0 mi NW 3.5 mph - N/A   Clear
6:54 AM 65.3 °F 62.6 °F 91% 29.94 in 10.0 mi NNW 4.6 mph - N/A   Clear
7:14 AM 67.1 °F 62.6 °F 85% 29.95 in 10.0 mi NW 5.8 mph - N/A   Mostly Cloudy
7:34 AM 67.3 °F 62.4 °F 84% 29.95 in 10.0 mi NNW 5.8 mph - N/A   Overcast
7:53 AM 68.2 °F 62.8 °F 83% 29.96 in 10.0 mi NW 8.1 mph - N/A   Scattered Clouds
8:13 AM 68.7 °F 62.6 °F 81% 29.96 in 10.0 mi NNW 6.9 mph - N/A   Clear
8:33 AM 68.5 °F 62.8 °F 82% 29.97 in 10.0 mi NNW 6.9 mph - N/A   Clear
8:51 AM 68.9 °F 63.0 °F 81% 29.97 in 10.0 mi NNW 6.9 mph - N/A   Scattered Clouds
9:14 AM 68.9 °F 62.8 °F 81% 29.97 in 10.0 mi North 3.5 mph - N/A   Mostly Cloudy
9:34 AM 69.3 °F 63.3 °F 81% 29.97 in 10.0 mi NNW 4.6 mph - N/A   Scattered Clouds
9:54 AM 70.5 °F 64.0 °F 80% 29.97 in 10.0 mi NNW 3.5 mph - N/A   Clear
10:13 AM 71.6 °F 64.0 °F 77% 29.96 in 10.0 mi NNW 3.5 mph - N/A   Clear
10:34 AM 72.3 °F 63.5 °F 74% 29.97 in 10.0 mi Calm Calm - N/A   Scattered Clouds
10:53 AM 73.4 °F 64.0 °F 72% 29.97 in 10.0 mi North 3.5 mph - N/A   Scattered Clouds
11:14 AM 73.9 °F 65.1 °F 74% 29.98 in 10.0 mi NNW 6.9 mph - N/A   Scattered Clouds
11:34 AM 74.5 °F 64.9 °F 72% 29.97 in 10.0 mi NW 10.4 mph - N/A   Scattered Clouds
11:53 AM 75.2 °F 64.8 °F 70% 29.97 in 10.0 mi North 6.9 mph - N/A   Clear
12:14 PM 76.8 °F 63.7 °F 64% 29.97 in 10.0 mi NW 9.2 mph - N/A   Scattered Clouds
12:33 PM 77.0 °F 63.7 °F 63% 29.97 in 7.0 mi NW 9.2 mph - N/A   Clear
12:53 PM 77.2 °F 63.9 °F 63% 29.96 in 10.0 mi NNE 6.9 mph - N/A   Scattered Clouds
1:14 PM 75.6 °F 63.7 °F 66% 29.96 in 10.0 mi WNW 4.6 mph - N/A   Scattered Clouds
1:34 PM 75.0 °F 63.0 °F 66% 29.96 in 10.0 mi North 5.8 mph - N/A   Clear
1:54 PM 75.2 °F 64.2 °F 69% 29.95 in 10.0 mi NNE 6.9 mph - N/A   Scattered Clouds
2:14 PM 75.7 °F 63.5 °F 66% 29.94 in 10.0 mi NE 8.1 mph - N/A   Scattered Clouds
2:34 PM 76.8 °F 63.5 °F 63% 29.95 in 10.0 mi Calm Calm - N/A   Mostly Cloudy
2:53 PM 76.6 °F 63.7 °F 64% 29.94 in 10.0 mi ESE 5.8 mph - N/A   Mostly Cloudy
3:14 PM 77.2 °F 62.4 °F 60% 29.94 in 10.0 mi Calm Calm - N/A   Scattered Clouds
3:34 PM 77.2 °F 61.3 °F 58% 29.94 in 7.0 mi Calm Calm - N/A   Mostly Cloudy
3:54 PM 76.8 °F 62.1 °F 60% 29.95 in 10.0 mi Calm Calm - N/A   Mostly Cloudy
4:14 PM 78.3 °F 62.8 °F 59% 29.95 in 10.0 mi East 4.6 mph - N/A   Mostly Cloudy
4:33 PM 77.5 °F 63.0 °F 61% 29.95 in 10.0 mi NE 4.6 mph - N/A   Mostly Cloudy
4:54 PM 77.9 °F 62.8 °F 60% 29.94 in 10.0 mi Calm Calm - N/A   Mostly Cloudy
5:13 PM 78.6 °F 62.6 °F 58% 29.94 in 10.0 mi North 3.5 mph - N/A   Mostly Cloudy
5:34 PM 77.4 °F 62.8 °F 61% 29.94 in 10.0 mi Calm Calm - N/A   Mostly Cloudy
5:54 PM 77.4 °F 61.9 °F 59% 29.94 in 10.0 mi Calm Calm - N/A   Mostly Cloudy
6:14 PM 77.4 °F 63.0 °F 61% 29.94 in 10.0 mi NW 4.6 mph - N/A   Mostly Cloudy
6:34 PM 77.2 °F 63.0 °F 61% 29.94 in 10.0 mi NW 3.5 mph - N/A   Scattered Clouds
6:54 PM 77.2 °F 62.8 °F 61% 29.93 in 10.0 mi NNW 3.5 mph - N/A   Scattered Clouds
7:14 PM 77.0 °F 62.8 °F 61% 29.93 in 10.0 mi North 3.5 mph - N/A   Clear
7:33 PM 77.0 °F 62.4 °F 61% 29.92 in 10.0 mi NNW 4.6 mph - N/A   Clear
7:54 PM 76.5 °F 62.2 °F 61% 29.92 in 10.0 mi NE 4.6 mph - N/A   Clear
8:14 PM 74.5 °F 62.4 °F 66% 29.94 in 10.0 mi ENE 5.8 mph - N/A   Clear
8:33 PM 73.6 °F 62.4 °F 68% 29.93 in 10.0 mi ENE 4.6 mph - N/A   Clear
8:54 PM 72.3 °F 61.7 °F 69% 29.93 in 10.0 mi ENE 5.8 mph - N/A   Clear
9:13 PM 71.4 °F 61.5 °F 71% 29.94 in 10.0 mi ENE 6.9 mph - N/A   Clear
9:34 PM 70.2 °F 60.4 °F 71% 29.94 in 10.0 mi ENE 6.9 mph - N/A   Clear
9:54 PM 69.4 °F 59.9 °F 72% 29.96 in 10.0 mi ENE 5.8 mph - N/A   Clear
10:14 PM 68.2 °F 60.1 °F 75% 29.96 in 10.0 mi ENE 5.8 mph - N/A   Clear
10:33 PM 67.1 °F 60.3 °F 79% 29.96 in 10.0 mi NE 5.8 mph - N/A   Clear
10:54 PM 67.1 °F 59.4 °F 76% 29.97 in 10.0 mi ENE 5.8 mph - N/A   Clear
11:14 PM 66.0 °F 59.4 °F 79% 29.98 in 10.0 mi NE 4.6 mph - N/A   Clear
11:33 PM 66.4 °F 59.0 °F 77% 29.97 in 10.0 mi ENE 4.6 mph - N/A   Clear
11:54 PM 66.2 °F 58.6 °F 77% 29.96 in 10.0 mi ENE 6.9 mph - N/A   Clear